When you browse on this site, cookies collect data to enhance your experience and personalize the content and advertising you see.
Visit our Privacy Policy to learn more. By continuing to use the site, you agree to this use of cookies and data.
  • In Hungary
  • List of Countries
  • For 7 days
  • Water Temperature
  • Satellite Maps
  • Weather Map
  • News
  • Weather Widgets
  • user-avatar
    Login

    Hourly Weather Khashuri

    Today, 21 November, Wednesday

    Time Temperature Precipitation Wind Pressure Humidity
    00:00 +1°C° 0.3 mm 2 mps 613 mmHg 86%
    01:00 +1°C° 0.2 mm 2 mps 613 mmHg 87%
    02:00 +1°C° 0.2 mm 2 mps 613 mmHg 88%
    03:00 0°C° 0 mm 3 mps 613 mmHg 92%
    04:00 0°C° 0.1 mm 3 mps 613 mmHg 92%
    05:00 0°C° 0.1 mm 3 mps 613 mmHg 92%
    06:00 +1°C° 0.1 mm 2 mps 613 mmHg 92%
    07:00 +2°C° 0.2 mm 2 mps 612 mmHg 91%
    08:00 +2°C° 0.2 mm 2 mps 612 mmHg 89%
    09:00 +2°C° 0.2 mm 2 mps 612 mmHg 88%
    10:00 +3°C° 0.1 mm 2 mps 612 mmHg 86%
    11:00 +3°C° 0.1 mm 2 mps 612 mmHg 84%
    12:00 +3°C° 0.1 mm 2 mps 612 mmHg 82%
    13:00 +3°C° 0.1 mm 2 mps 611 mmHg 82%
    14:00 +3°C° 0.1 mm 2 mps 611 mmHg 83%
    15:00 +3°C° 0.1 mm 2 mps 611 mmHg 83%
    16:00 +3°C° 0.1 mm 2 mps 611 mmHg 85%
    17:00 +3°C° 0.1 mm 1 mps 611 mmHg 87%
    18:00 +2°C° 0.1 mm 1 mps 611 mmHg 88%
    19:00 +2°C° 0.1 mm 1 mps 611 mmHg 88%
    20:00 +2°C° 0.1 mm 1 mps 610 mmHg 87%
    21:00 +2°C° 0.1 mm 1 mps 610 mmHg 87%
    22:00 +2°C° 0.2 mm 1 mps 610 mmHg 87%
    23:00 +2°C° 0.2 mm 1 mps 610 mmHg 87%

    Tomorrow, 22 November, Thursday

    Time Temperature Precipitation Wind Pressure Humidity
    00:00 +2°C° 0.2 mm 1 mps 610 mmHg 87%
    01:00 +2°C° 0.3 mm 1 mps 610 mmHg 87%
    02:00 +2°C° 0.3 mm 1 mps 610 mmHg 88%
    03:00 +1°C° 0.3 mm 1 mps 609 mmHg 88%
    04:00 +1°C° 0.3 mm 1 mps 609 mmHg 88%
    05:00 +2°C° 0.3 mm 1 mps 609 mmHg 88%
    06:00 +2°C° 0.3 mm 1 mps 609 mmHg 88%
    07:00 +2°C° 0.3 mm 1 mps 609 mmHg 87%
    08:00 +2°C° 0.3 mm 1 mps 609 mmHg 86%
    09:00 +3°C° 0.3 mm 1 mps 609 mmHg 85%
    10:00 +3°C° 0.3 mm 1 mps 609 mmHg 84%
    11:00 +3°C° 0.3 mm 2 mps 609 mmHg 83%
    12:00 +3°C° 0.3 mm 2 mps 609 mmHg 81%
    13:00 +4°C° 0.3 mm 1 mps 609 mmHg 82%
    14:00 +4°C° 0.3 mm 1 mps 609 mmHg 83%
    15:00 +4°C° 0.3 mm 1 mps 609 mmHg 84%
    16:00 +4°C° 0.2 mm 1 mps 609 mmHg 86%
    17:00 +3°C° 0.2 mm 1 mps 609 mmHg 88%
    18:00 +3°C° 0.2 mm 1 mps 609 mmHg 90%
    19:00 +2°C° 0.1 mm 1 mps 609 mmHg 89%
    20:00 +2°C° 0.1 mm 1 mps 610 mmHg 89%
    21:00 +2°C° 0.1 mm 1 mps 610 mmHg 89%
    22:00 +2°C° 0.1 mm 1 mps 610 mmHg 89%
    23:00 +2°C° 0.1 mm 1 mps 610 mmHg 89%

    Day after tomorrow, 23 November, Friday

    Time Temperature Precipitation Wind Pressure Humidity
    00:00 +2°C° 0.1 mm 1 mps 610 mmHg 89%
    01:00 +2°C° 0.2 mm 1 mps 610 mmHg 89%
    02:00 +2°C° 0.2 mm 1 mps 610 mmHg 89%
    03:00 +1°C° 0.2 mm 1 mps 610 mmHg 89%
    04:00 +1°C° 0.2 mm 1 mps 610 mmHg 89%
    05:00 +1°C° 0.2 mm 1 mps 610 mmHg 89%
    06:00 +1°C° 0.2 mm 1 mps 610 mmHg 89%
    07:00 +2°C° 0.3 mm 1 mps 611 mmHg 88%
    08:00 +2°C° 0.3 mm 1 mps 612 mmHg 86%
    09:00 +2°C° 0.3 mm 1 mps 612 mmHg 85%
    10:00 +2°C° 0.3 mm 2 mps 612 mmHg 84%
    11:00 +2°C° 0.3 mm 2 mps 612 mmHg 82%
    12:00 +3°C° 0.3 mm 2 mps 612 mmHg 81%
    13:00 +3°C° 0.2 mm 2 mps 613 mmHg 83%
    14:00 +2°C° 0.2 mm 2 mps 613 mmHg 84%
    15:00 +2°C° 0.2 mm 2 mps 613 mmHg 85%
    16:00 +1°C° 0.1 mm 2 mps 613 mmHg 87%
    17:00 +1°C° 0.1 mm 2 mps 613 mmHg 89%
    18:00 -1°C° 0.1 mm 2 mps 613 mmHg 91%
    19:00 -2°C° 0 mm 2 mps 614 mmHg 91%
    20:00 -2°C° 0 mm 2 mps 614 mmHg 91%
    21:00 0°C° 0 mm 1 mps 614 mmHg 91%
    22:00 -1°C° 0 mm 1 mps 614 mmHg 91%
    23:00 -1°C° 0 mm 1 mps 615 mmHg 92%

    24 November, Saturday

    Time Temperature Precipitation Wind Pressure Humidity
    00:00 -2°C° 0 mm 1 mps 615 mmHg 92%
    01:00 -2°C° 0 mm 1 mps 615 mmHg 90%
    02:00 -2°C° 0 mm 1 mps 615 mmHg 89%
    03:00 -3°C° 0 mm 1 mps 615 mmHg 87%
    04:00 -3°C° 0 mm 1 mps 615 mmHg 85%
    05:00 -3°C° 0 mm 1 mps 615 mmHg 84%
    06:00 -3°C° 0 mm 1 mps 615 mmHg 82%
    07:00 -2°C° 0 mm 1 mps 616 mmHg 78%
    08:00 -1°C° 0 mm 1 mps 617 mmHg 74%
    09:00 0°C° 0 mm 1 mps 617 mmHg 69%
    10:00 -1°C° 0 mm 2 mps 617 mmHg 66%
    11:00 +1°C° 0 mm 2 mps 618 mmHg 63%
    12:00 +1°C° 0 mm 3 mps 618 mmHg 60%
    13:00 +1°C° 0 mm 3 mps 618 mmHg 63%
    14:00 +1°C° 0 mm 3 mps 617 mmHg 65%
    15:00 +1°C° 0 mm 3 mps 617 mmHg 68%
    16:00 0°C° 0 mm 3 mps 617 mmHg 71%
    17:00 -1°C° 0 mm 3 mps 617 mmHg 75%
    18:00 -4°C° 0 mm 3 mps 617 mmHg 79%
    19:00 -4°C° 0 mm 3 mps 617 mmHg 79%
    20:00 -4°C° 0 mm 3 mps 617 mmHg 80%
    21:00 -4°C° 0 mm 3 mps 617 mmHg 80%
    22:00 -4°C° 0 mm 3 mps 617 mmHg 80%
    23:00 -5°C° 0 mm 3 mps 616 mmHg 80%

    25 November, Sunday

    Time Temperature Precipitation Wind Pressure Humidity
    00:00 -5°C° 0 mm 3 mps 616 mmHg 81%
    01:00 -5°C° 0 mm 3 mps 616 mmHg 81%
    02:00 -5°C° 0 mm 3 mps 615 mmHg 81%
    03:00 -4°C° 0 mm 2 mps 615 mmHg 81%
    04:00 -4°C° 0 mm 2 mps 615 mmHg 81%
    05:00 -4°C° 0 mm 2 mps 614 mmHg 81%
    06:00 -4°C° 0 mm 2 mps 614 mmHg 81%
    07:00 -3°C° 0 mm 2 mps 614 mmHg 78%
    08:00 -2°C° 0 mm 2 mps 614 mmHg 75%
    09:00 -1°C° 0 mm 2 mps 614 mmHg 72%
    10:00 +1°C° 0 mm 2 mps 614 mmHg 69%
    11:00 +2°C° 0 mm 2 mps 614 mmHg 66%
    12:00 +4°C° 0 mm 2 mps 614 mmHg 63%
    13:00 +4°C° 0 mm 2 mps 613 mmHg 63%
    14:00 +5°C° 0 mm 1 mps 613 mmHg 64%
    15:00 +5°C° 0 mm 1 mps 612 mmHg 65%
    16:00 +3°C° 0 mm 1 mps 612 mmHg 69%
    17:00 +2°C° 0 mm 1 mps 611 mmHg 74%
    18:00 0°C° 0 mm 1 mps 611 mmHg 78%
    19:00 0°C° 0 mm 1 mps 611 mmHg 78%
    20:00 0°C° 0 mm 1 mps 611 mmHg 78%
    21:00 0°C° 0 mm 1 mps 611 mmHg 78%
    22:00 0°C° 0 mm 1 mps 611 mmHg 78%
    23:00 0°C° 0 mm 1 mps 611 mmHg 78%

    26 November, Monday

    Time Temperature Precipitation Wind Pressure Humidity
    00:00 0°C° 0 mm 1 mps 611 mmHg 78%
    01:00 0°C° 0 mm 1 mps 611 mmHg 79%
    02:00 0°C° 0 mm 1 mps 611 mmHg 79%
    03:00 0°C° 0 mm 1 mps 611 mmHg 80%
    04:00 0°C° 0 mm 1 mps 611 mmHg 80%
    05:00 -1°C° 0 mm 1 mps 611 mmHg 81%
    06:00 -1°C° 0 mm 1 mps 610 mmHg 81%
    07:00 0°C° 0 mm 1 mps 611 mmHg 79%
    08:00 +1°C° 0 mm 1 mps 611 mmHg 76%
    09:00 +2°C° 0 mm 1 mps 612 mmHg 74%
    10:00 +3°C° 0 mm 1 mps 612 mmHg 71%
    11:00 +3°C° 0 mm 2 mps 612 mmHg 67%
    12:00 +4°C° 0 mm 2 mps 612 mmHg 64%
    13:00 +4°C° 0 mm 2 mps 612 mmHg 65%
    14:00 +4°C° 0 mm 2 mps 611 mmHg 65%
    15:00 +5°C° 0 mm 1 mps 611 mmHg 66%
    16:00 +3°C° 0 mm 1 mps 611 mmHg 70%
    17:00 +2°C° 0 mm 1 mps 611 mmHg 74%
    18:00 +1°C° 0 mm 1 mps 611 mmHg 78%
    19:00 0°C° 0 mm 1 mps 611 mmHg 78%
    20:00 -2°C° 0 mm 2 mps 611 mmHg 77%
    21:00 -2°C° 0 mm 2 mps 611 mmHg 76%
    22:00 -2°C° 0 mm 2 mps 611 mmHg 76%
    23:00 -3°C° 0 mm 2 mps 611 mmHg 76%
    Show more